Date String (YYYY-MM-DD hh:mm:ss) UTC,Instrument flags,absolute air pressure of the measurement (hPa),sample flow rate (lpm),inlet stack bypass flow (lpm),air temperature of the measurement (°C),ambient temperature measured by the external sensor (°C),aerosol sample conditioner tube jacket temperature (°C),OPC LED temperature (°C),internal box temperature (°C),relative humidity of the measurement (%),span deviation,mass concentration of particles derived from Lorenz-Mie calculation of OPC scattering (μg/m³),mass concentration of particles derived from Lorenz-Mie calculation of OPC scattering (μg/m³),mass concentration of particles derived from Lorenz-Mie calculation of OPC scattering (μg/m³)
DateTimeUTC,F1_M11,P_M11,Q1_M11,Q2_M11,T1_M11,T2_M11,T3_M11,T4_M11,T5_M11,U1_M11,ZSPAN_M11,X0_M11,X2_M11,X1_M11
2024-06-03 12:00:00,SystemResetWarning,0824.7,5.00,000.00,030.9,030.0,000.0,039.4,032.5,016.2,0000.0,0028.21,0006.22,0004.20
2024-06-03 12:01:00,SystemResetWarning,0824.7,4.99,000.00,030.9,030.0,000.0,039.4,032.6,016.2,0000.0,0030.61,0006.16,0004.19
2024-06-03 12:02:00,SystemResetWarning,0824.7,4.99,000.00,030.9,030.0,000.0,039.4,032.6,016.1,0000.0,0031.72,0006.11,0004.18
2024-06-03 12:03:00,SystemResetWarning,0824.7,5.01,000.00,030.9,030.0,000.0,039.4,032.6,016.0,0000.0,0030.97,0006.07,0004.19
2024-06-03 12:04:00,SystemResetWarning,0824.7,5.01,000.00,030.9,030.0,000.0,039.4,032.6,015.8,0000.0,0031.43,0006.00,0004.18
2024-06-03 12:05:00,SystemResetWarning,0824.8,5.00,000.00,030.9,030.0,000.0,039.4,032.6,015.5,0000.0,0029.85,0005.95,0004.18
2024-06-03 12:06:00,SystemResetWarning,0824.8,5.00,000.00,030.9,030.0,000.0,039.4,032.6,015.2,0000.0,0027.38,0005.84,0004.15
2024-06-03 12:07:00,SystemResetWarning,0824.8,4.99,000.00,030.9,030.1,000.0,039.4,032.6,015.7,0000.0,0025.30,0005.70,0004.13
2024-06-03 12:08:00,SystemResetWarning,0824.8,5.00,000.00,030.9,030.1,000.0,039.4,032.6,015.5,0000.0,0024.34,0005.67,0004.11
2024-06-03 12:09:00,SystemResetWarning,0824.9,5.00,000.00,030.9,030.1,000.0,039.4,032.6,015.6,0000.0,0023.47,0005.53,0004.07
2024-06-03 12:10:00,SystemResetWarning,0824.9,5.00,000.00,030.9,030.1,000.0,039.4,032.6,015.6,0000.0,0023.21,0005.46,0004.04
2024-06-03 12:11:00,SystemResetWarning,0824.9,5.00,000.00,030.9,030.1,000.0,039.4,032.6,015.6,0000.0,0022.42,0005.43,0004.02
2024-06-03 12:12:00,SystemResetWarning,0824.9,4.99,000.00,030.9,030.1,000.0,039.4,032.6,015.9,0000.0,0019.97,0005.37,0004.00
2024-06-03 12:13:00,SystemResetWarning,0824.8,5.00,000.00,030.9,030.1,000.0,039.4,032.6,016.5,0000.0,0018.52,0005.35,0003.99
2024-06-03 12:14:00,SystemResetWarning,0824.9,4.99,000.00,030.9,030.1,000.0,039.4,032.6,016.5,0000.0,0018.61,0005.43,0003.99
2024-06-03 12:15:00,SystemResetWarning,0824.9,5.00,000.00,030.9,030.1,000.0,039.4,032.6,016.4,0000.0,0017.06,0005.48,0003.97
2024-06-03 12:16:00,SystemResetWarning,0824.9,5.00,000.00,030.9,030.1,000.0,039.4,032.6,016.2,0000.0,0017.20,0005.48,0003.97
2024-06-03 12:17:00,SystemResetWarning,0824.9,5.00,000.00,030.9,030.1,000.0,039.3,032.6,016.0,0000.0,0017.84,0005.50,0003.96
2024-06-03 12:18:00,SystemResetWarning,0824.9,5.01,000.00,030.9,030.1,000.0,039.3,032.6,016.0,0000.0,0018.40,0005.53,0003.96
2024-06-03 12:19:00,SystemResetWarning,0824.9,5.00,000.00,030.9,030.1,000.0,039.3,032.6,016.1,0000.0,0018.05,0005.54,0003.96
2024-06-03 12:20:00,SystemResetWarning,0824.9,5.00,000.00,030.9,030.1,000.0,039.3,032.6,016.0,0000.0,0019.18,0005.63,0003.97
2024-06-03 12:21:00,SystemResetWarning,0824.9,4.99,000.00,030.9,030.1,000.0,039.3,032.5,016.1,0000.0,0019.56,0005.67,0003.98
2024-06-03 12:22:00,SystemResetWarning,0824.8,5.00,000.00,030.9,030.1,000.0,039.3,032.6,016.1,0000.0,0019.24,0005.70,0003.99
2024-06-03 12:23:00,SystemResetWarning,0824.8,4.99,000.00,030.9,030.1,000.0,039.3,032.6,016.1,0000.0,0020.00,0005.74,0004.00
2024-06-03 12:24:00,SystemResetWarning,0824.8,5.00,000.00,030.9,030.1,000.0,039.3,032.6,016.1,0000.0,0020.00,0005.75,0004.00
2024-06-03 12:25:00,SystemResetWarning,0824.9,5.00,000.00,030.9,030.1,000.0,039.3,032.6,016.1,0000.0,0021.02,0005.69,0003.99
2024-06-03 12:26:00,SystemResetWarning,0824.9,5.01,000.00,030.9,030.1,000.0,039.3,032.6,016.1,0000.0,0021.25,0005.61,0003.99
2024-06-03 12:27:00,SystemResetWarning,0824.9,5.01,000.00,030.9,030.1,000.0,039.3,032.5,016.1,0000.0,0021.31,0005.61,0003.99
2024-06-03 12:28:00,SystemResetWarning,0824.9,5.00,000.00,030.9,030.1,000.0,039.3,032.5,016.1,0000.0,0021.64,0005.65,0003.99
2024-06-03 12:29:00,SystemResetWarning,0824.9,5.00,000.00,030.9,030.1,000.0,039.3,032.5,016.0,0000.0,0021.50,0005.72,0003.99
2024-06-03 12:30:00,SystemResetWarning,0824.9,5.00,000.00,030.9,030.1,000.0,039.3,032.6,015.9,0000.0,0021.19,0005.75,0003.98
2024-06-03 12:31:00,SystemResetWarning,0824.9,5.00,000.00,030.9,030.1,000.0,039.3,032.6,015.9,0000.0,0020.40,0005.70,0003.97
2024-06-03 12:32:00,SystemResetWarning,0824.8,5.01,000.00,030.9,030.1,000.0,039.3,032.6,015.8,0000.0,0019.91,0005.73,0003.97
2024-06-03 12:33:00,SystemResetWarning,0824.8,4.99,000.00,030.9,030.1,000.0,039.3,032.6,015.9,0000.0,0019.44,0005.69,0003.97
2024-06-03 12:34:00,SystemResetWarning,0824.8,5.00,000.00,030.9,030.1,000.0,039.3,032.6,016.1,0000.0,0019.46,0005.67,0003.97
2024-06-03 12:35:00,SystemResetWarning,0824.9,5.00,000.00,030.9,030.1,000.0,039.3,032.6,016.1,0000.0,0019.94,0005.71,0003.96
2024-06-03 12:36:00,SystemResetWarning,0824.9,5.00,000.00,030.9,030.1,000.0,039.3,032.6,015.9,0000.0,0019.32,0005.69,0003.96
2024-06-03 12:37:00,SystemResetWarning,0824.9,5.00,000.00,030.9,030.1,000.0,039.3,032.6,015.8,0000.0,0018.86,0005.67,0003.96
2024-06-03 12:38:00,SystemResetWarning,0824.9,5.00,000.00,030.9,030.1,000.0,039.3,032.6,015.8,0000.0,0019.51,0005.68,0003.95
2024-06-03 12:39:00,SystemResetWarning,0824.9,5.00,000.00,030.9,030.1,000.0,039.3,032.6,015.9,0000.0,0019.90,0005.66,0003.95
2024-06-03 12:40:00,SystemResetWarning,0824.9,5.00,000.00,030.9,030.1,000.0,039.3,032.6,015.9,0000.0,0020.17,0005.59,0003.95
2024-06-03 12:41:00,SystemResetWarning,0824.8,5.00,000.00,030.9,030.1,000.0,039.3,032.6,016.1,0000.0,0019.99,0005.55,0003.95
2024-06-03 12:42:00,SystemResetWarning,0824.9,5.00,000.00,030.9,030.1,000.0,039.3,032.6,016.2,0000.0,0020.34,0005.58,0003.97
2024-06-03 12:43:00,SystemResetWarning,0824.9,5.00,000.00,030.9,030.1,000.0,039.4,032.6,016.2,0000.0,0021.22,0005.66,0003.98
2024-06-03 12:44:00,SystemResetWarning,0824.9,5.00,000.00,030.9,030.1,000.0,039.4,032.6,016.2,0000.0,0021.88,0005.70,0003.98
2024-06-03 12:45:00,SystemResetWarning,0824.9,5.00,000.00,030.9,030.1,000.0,039.4,032.6,016.3,0000.0,0021.58,0005.67,0003.97
2024-06-03 12:46:00,SystemResetWarning,0824.9,5.00,000.00,030.9,030.1,000.0,039.4,032.6,016.7,0000.0,0021.50,0005.68,0003.98
2024-06-03 12:47:00,SystemResetWarning,0824.9,5.00,000.00,030.9,030.2,000.0,039.4,032.6,016.5,0000.0,0022.94,0005.73,0003.98
2024-06-03 12:48:00,SystemResetWarning,0824.9,5.00,000.00,030.9,030.2,000.0,039.3,032.6,016.4,0000.0,0021.79,0005.73,0003.97
2024-06-03 12:49:00,SystemResetWarning,0824.9,5.00,000.00,030.9,030.2,000.0,039.3,032.6,016.4,0000.0,0021.06,0005.74,0003.98
2024-06-03 12:50:00,SystemResetWarning,0824.9,5.00,000.00,030.9,030.1,000.0,039.4,032.6,016.4,0000.0,0021.79,0005.75,0003.98
2024-06-03 12:51:00,SystemResetWarning,0824.9,5.00,000.00,030.9,030.1,000.0,039.4,032.6,016.4,0000.0,0022.57,0005.79,0003.98
2024-06-03 12:52:00,SystemResetWarning,0824.9,5.00,000.00,030.9,030.1,000.0,039.3,032.6,016.5,0000.0,0025.10,0005.85,0003.99
2024-06-03 12:53:00,SystemResetWarning,0824.9,5.00,000.00,030.9,030.1,000.0,039.3,032.6,016.2,0000.0,0026.04,0005.83,0003.98
2024-06-03 12:54:00,SystemResetWarning,0824.9,5.00,000.00,030.9,030.1,000.0,039.4,032.6,015.8,0000.0,0025.43,0005.64,0003.94
2024-06-03 12:55:00,SystemResetWarning,0824.8,5.00,000.00,030.9,030.1,000.0,039.4,032.6,015.9,0000.0,0025.00,0005.58,0003.91
2024-06-03 12:56:00,SystemResetWarning,0824.8,5.00,000.00,030.9,030.1,000.0,039.4,032.6,016.2,0000.0,0024.81,0005.67,0003.89
2024-06-03 12:57:00,SystemResetWarning,0824.8,5.00,000.00,030.9,030.1,000.0,039.4,032.6,016.2,0000.0,0024.17,0005.66,0003.88
2024-06-03 12:58:00,SystemResetWarning,0824.8,5.00,000.00,030.9,030.1,000.0,039.3,032.6,016.3,0000.0,0023.52,0005.67,0003.88
2024-06-03 12:59:00,SystemResetWarning,0824.8,5.00,000.00,030.9,030.1,000.0,039.3,032.6,016.2,0000.0,0023.39,0005.66,0003.86
